Miscellaneous Local Product
Issued by NWS Hastings, NE

Home | Current Version | Previous Version | Graphics & Text | Print | Product List | Glossary On
Versions: 1 2 3 4 5 6 7 8 9 10 11 12 13 14 15 16 17 18 19 20 21 22 23 24 25 26 27 28 29 30 31 32 33 34 35 36 37 38 39 40 41 42 43 44 45 46 47 48 49 50
000
AXUS43 KGID 191502
MISGRI

GID CWA HOURLY WEATHER ROUNDUP
NATIONAL WEATHER SERVICE HASTINGS NE
1000 AM CDT SUN APR 19 2015

NOTE: "FAIR" INDICATES FEW OR NO CLOUDS BELOW 12,000 FEET WITH NO
SIGNIFICANT WEATHER AND/OR OBSTRUCTIONS TO VISIBILITY.

...SOUTH CENTRAL NEBRASKA...

CITY           SKY/WX    TMP DP  RH WIND       PRES   REMARKS
GRAND ISLAND   LGT RAIN  48  44  86 N18G24    29.86R
HASTINGS       LGT RAIN  49  47  93 N14       29.84S
KEARNEY        CLOUDY    45  37  76 N44G54    29.88R
ORD            CLOUDY    47  36  65 N26G39    29.87R
YORK           LGT RAIN  50  48  93 N14G22    29.81F
AURORA         LGT RAIN  49  49  98 N14       29.82F
LEXINGTON      CLOUDY    46  40  77 N22G31    29.92R
HOLDREGE       LGT RAIN  46  42  86 N31G41    29.89R
HEBRON         CLOUDY    52  48  85 N15G22    29.79R

...NEBRASKA PANHANDLE...

CITY           SKY/WX    TMP DP  RH WIND       PRES   REMARKS
CHADRON        SUNNY     44  30  57 NW17      30.11S
ALLIANCE       MOSUNNY   43  29  57 NW20G28   30.07S
SCOTTSBLUFF    MOSUNNY   44 N/A N/A NW22G31   30.12S
SIDNEY         SUNNY     42  30  62 N23G33    30.08S

...WESTERN AND NORTH CENTRAL NEBRASKA...

CITY           SKY/WX    TMP DP  RH WIND       PRES   REMARKS
VALENTINE      SUNNY     47  31  53 NW23G35   29.98F
AINSWORTH      PTSUNNY   44  34  66 NW24G32   29.95F
ONEILL         CLOUDY    47  38  70 NW32      29.88S
BROKEN BOW     CLOUDY    46  38  73 N31G41    29.90R
IMPERIAL       PTSUNNY   47  35  63 N28G39    30.02R
NORTH PLATTE   PTSUNNY   49  35  58 N28G40    29.96S
MCCOOK         CLOUDY    47  41  80 N15       29.97R

...EASTERN NEBRASKA...

CITY           SKY/WX    TMP DP  RH WIND       PRES   REMARKS
NORFOLK        NOT AVBL
SO SIOUX CITY  CLOUDY    53  47  79 N18       29.75R
TEKAMAH        HVY RAIN  53  50  89 NW18      29.74R FOG
COLUMBUS       CLOUDY    50  41  71 N20G25    29.81S
ALBION         LGT RAIN  48  39  71 N17G29    29.82R
OMAHA EPPLEY   LGT RAIN  54  52  93 NW15      29.73S FOG
OFFUTT AFB     RAIN      54  54 100 NW17      29.72R
MILLARD        LGT RAIN  54  52  94 NW15G23   29.74S
LINCOLN        LGT RAIN  53  50  89 NW17      29.77F FOG
NEBRASKA CITY  RAIN      54  54 100 NW13      29.72S
BEATRICE       CLOUDY    54  52  92 NW18      29.75F
FALLS CITY     CLOUDY    57  54  89 NW9       29.70F

...NORTHERN KANSAS...

CITY           SKY/WX    TMP DP  RH WIND       PRES   REMARKS
GOODLAND       CLOUDY    42  38  85 N21G31    30.01R
HILL CITY      LGT RAIN  49  45  86 N25G36    29.90R FOG
NORTON         LGT RAIN  45  39  81 N30G45    29.92R
PHILLIPSBURG   RAIN      52  52 100 NW17G25   29.87R
SMITH CENTER   LGT RAIN  48  46  93 N18G26    29.84R
BELOIT         CLOUDY    52  50  93 N16G24    29.79R
HAYS           CLOUDY    54  45  71 N20G25    29.84R
RUSSELL        CLOUDY    55  50  83 N20G25    29.80R
CONCORDIA      CLOUDY    54  52  93 N13       29.78R
SALINA         CLOUDY    59  52  77 NW8       29.77S
TOPEKA         CLOUDY    61  54  77 NW9       29.72F



USA.gov is the U.S. government's official web portal to all federal, state and local government web resources and services.